| time (UTC) | temp F | wind direction | speed knots | gust knots | rain 1hr in | rain 24hr in | rain mn in | humidity % | barometer mb |
| 20260905175104 | 82 | 26 | 0.0 | 0.0 | 0.00 | 0.00 | 0.00 | 60 | 1014.9 |
| 20260905174600 | 81 | 58 | 0.0 | 0.0 | 0.00 | 0.00 | 0.00 | 62 | 1014.9 |
| 20260905174054 | 79 | 152 | 0.0 | 0.0 | 0.00 | 0.00 | 0.00 | 66 | 1014.9 |
| 20260905173551 | 80 | 118 | 0.0 | 0.0 | 0.00 | 0.00 | 0.00 | 64 | 1014.9 |
| 20260905173046 | 81 | 146 | 0.0 | 0.0 | 0.00 | 0.00 | 0.00 | 63 | 1014.9 |
| 20260905172545 | 79 | 43 | 0.0 | 0.0 | 0.00 | 0.00 | 0.00 | 66 | 1014.9 |
| 20260905172040 | 78 | 4 | 0.0 | 0.0 | 0.00 | 0.00 | 0.00 | 68 | 1014.6 |
| 20260905171537 | 79 | 81 | 0.0 | 0.0 | 0.00 | 0.00 | 0.00 | 70 | 1014.9 |
| 20260905171032 | 78 | 48 | 0.0 | 0.0 | 0.00 | 0.00 | 0.00 | 69 | 1014.6 |
| 20260905170529 | 77 | 88 | 0.0 | 0.0 | 0.00 | 0.00 | 0.00 | 71 | 1014.9 |
| 20260905170024 | 77 | 88 | 0.0 | 0.0 | 0.00 | 0.00 | 0.00 | 72 | 1014.9 |
| 20260905165518 | 77 | 121 | 0.0 | 0.0 | 0.00 | 0.00 | 0.00 | 73 | 1014.9 |
| 20260905165014 | 77 | 49 | 0.0 | 0.0 | 0.00 | 0.00 | 0.00 | 73 | 1014.9 |
| 20260905164508 | 77 | 51 | 0.0 | 0.0 | 0.00 | 0.00 | 0.00 | 72 | 1014.9 |
| 20260905164003 | 77 | 57 | 0.0 | 0.0 | 0.00 | 0.00 | 0.00 | 76 | 1014.9 |
| 20260905163459 | 75 | 147 | 0.0 | 0.0 | 0.00 | 0.00 | 0.00 | 79 | 1014.9 |
| 20260905162955 | 75 | 301 | 0.0 | 0.0 | 0.00 | 0.00 | 0.00 | 79 | 1014.9 |
| 20260905162450 | 75 | 46 | 0.0 | 0.0 | 0.00 | 0.00 | 0.00 | 79 | 1014.9 |
| 20260905161944 | 74 | 31 | 0.0 | 0.0 | 0.00 | 0.00 | 0.00 | 81 | 1014.6 |
| 20260905161443 | 74 | 87 | 0.0 | 0.0 | 0.00 | 0.00 | 0.00 | 82 | 1014.9 |
| 20260905160941 | 73 | 37 | 0.0 | 0.0 | 0.00 | 0.00 | 0.00 | 83 | 1014.9 |
| 20260905160436 | 73 | 114 | 0.0 | 0.0 | 0.00 | 0.00 | 0.00 | 84 | 1014.6 |
| 20260905155935 | 72 | 63 | 0.0 | 0.0 | 0.00 | 0.00 | 0.00 | 86 | 1014.6 |
| 20260905155430 | 72 | 80 | 0.0 | 0.0 | 0.00 | 0.00 | 0.00 | 86 | 1014.6 |
| 20260905154929 | 72 | 359 | 0.0 | 0.0 | 0.00 | 0.00 | 0.00 | 85 | 1014.9 |
| 20260905154425 | 72 | 49 | 0.0 | 0.0 | 0.00 | 0.00 | 0.00 | 87 | 1014.9 |
| 20260905153920 | 71 | 46 | 0.0 | 0.0 | 0.00 | 0.00 | 0.00 | 90 | 1014.6 |
| 20260905153417 | 70 | 36 | 0.0 | 0.0 | 0.00 | 0.00 | 0.00 | 91 | 1014.9 |
| 20260905152916 | 70 | 35 | 0.0 | 0.0 | 0.00 | 0.00 | 0.00 | 91 | 1014.6 |
| 20260905152415 | 69 | 16 | 0.0 | 0.0 | 0.00 | 0.00 | 0.00 | 92 | 1014.6 |
| 20260905151910 | 69 | 9 | 0.0 | 0.0 | 0.00 | 0.00 | 0.00 | 92 | 1014.6 |
| 20260905151406 | 69 | 0 | 0.0 | 0.0 | 0.00 | 0.00 | 0.00 | 92 | 1014.6 |
| 20260905150901 | 69 | 14 | 0.0 | 0.0 | 0.00 | 0.00 | 0.00 | 92 | 1014.6 |
| 20260905150400 | 68 | 21 | 0.0 | 0.0 | 0.00 | 0.00 | 0.00 | 93 | 1014.6 |
| 20260905145858 | 67 | 10 | 0.0 | 0.0 | 0.00 | 0.00 | 0.00 | 94 | 1014.6 |
| 20260905145352 | 67 | 19 | 0.0 | 0.0 | 0.00 | 0.00 | 0.00 | 95 | 1014.2 |
| 20260905144852 | 66 | 347 | 0.0 | 0.0 | 0.00 | 0.00 | 0.00 | 97 | 1014.2 |
| 20260905144347 | 66 | 71 | 0.0 | 0.0 | 0.00 | 0.00 | 0.00 | 98 | 1014.6 |
| 20260905143845 | 66 | 74 | 0.0 | 0.0 | 0.00 | 0.00 | 0.00 | 98 | 1014.2 |
| 20260905143340 | 66 | 80 | 0.0 | 0.0 | 0.00 | 0.00 | 0.00 | 98 | 1014.2 |
| 20260905142839 | 66 | 80 | 0.0 | 0.0 | 0.00 | 0.00 | 0.00 | 99 | 1014.2 |
| 20260905142332 | 65 | 81 | 0.0 | 0.0 | 0.00 | 0.00 | 0.00 | 99 | 1014.2 |
| 20260905141829 | 64 | 83 | 0.0 | 0.0 | 0.00 | 0.00 | 0.00 | 99 | 1014.2 |
| 20260905141324 | 64 | 83 | 0.0 | 0.0 | 0.00 | 0.00 | 0.00 | 99 | 1014.2 |
| 20260905140820 | 63 | 84 | 0.0 | 0.0 | 0.00 | 0.00 | 0.00 | 99 | 1013.9 |
| 20260905140319 | 63 | 83 | 0.0 | 0.0 | 0.00 | 0.00 | 0.00 | 99 | 1013.9 |
| 20260905135818 | 62 | 83 | 0.0 | 0.0 | 0.00 | 0.00 | 0.00 | 99 | 1013.9 |
| 20260905135314 | 62 | 83 | 0.0 | 0.0 | 0.00 | 0.00 | 0.00 | 99 | 1013.9 |
| 20260905134810 | 62 | 83 | 0.0 | 0.0 | 0.00 | 0.00 | 0.00 | 99 | 1013.5 |
| 20260905134308 | 62 | 83 | 0.0 | 0.0 | 0.00 | 0.00 | 0.00 | 99 | 1013.5 |
| 20260905133803 | 62 | 83 | 0.0 | 0.0 | 0.00 | 0.00 | 0.00 | 99 | 1013.5 |
| 20260905133258 | 62 | 83 | 0.0 | 0.0 | 0.00 | 0.00 | 0.00 | 99 | 1013.5 |
| 20260905132757 | 62 | 83 | 0.0 | 0.0 | 0.00 | 0.00 | 0.00 | 99 | 1013.5 |
| 20260905132253 | 62 | 83 | 0.0 | 0.0 | 0.00 | 0.00 | 0.00 | 99 | 1013.5 |
| 20260905131748 | 61 | 83 | 0.0 | 0.0 | 0.00 | 0.00 | 0.00 | 99 | 1013.5 |
| 20260905131243 | 62 | 83 | 0.0 | 0.0 | 0.00 | 0.00 | 0.00 | 99 | 1013.2 |
| 20260905130738 | 62 | 83 | 0.0 | 0.0 | 0.00 | 0.00 | 0.00 | 99 | 1013.5 |
| 20260905130237 | 62 | 83 | 0.0 | 0.0 | 0.00 | 0.00 | 0.00 | 99 | 1013.5 |
| 20260905125732 | 62 | 83 | 0.0 | 0.0 | 0.00 | 0.00 | 0.00 | 99 | 1013.2 |
| 20260905125227 | 62 | 83 | 0.0 | 0.0 | 0.00 | 0.00 | 0.00 | 99 | 1013.5 |
| 20260905124723 | 63 | 83 | 0.0 | 0.0 | 0.00 | 0.00 | 0.00 | 99 | 1013.2 |
| 20260905124219 | 62 | 83 | 0.0 | 0.0 | 0.00 | 0.00 | 0.00 | 99 | 1013.2 |
| 20260905123714 | 62 | 83 | 0.0 | 0.0 | 0.00 | 0.00 | 0.00 | 99 | 1013.5 |
| 20260905123211 | 62 | 83 | 0.0 | 0.0 | 0.00 | 0.00 | 0.00 | 99 | 1013.5 |
| 20260905122710 | 62 | 83 | 0.0 | 0.0 | 0.00 | 0.00 | 0.00 | 99 | 1013.2 |
| 20260905122200 | 63 | 83 | 0.0 | 0.0 | 0.00 | 0.00 | 0.00 | 99 | 1013.5 |
| 20260905121654 | 63 | 83 | 0.0 | 0.0 | 0.00 | 0.00 | 0.00 | 99 | 1013.2 |
| 20260905121150 | 62 | 83 | 0.0 | 0.0 | 0.00 | 0.00 | 0.00 | 99 | 1013.5 |
| 20260905120649 | 62 | 84 | 0.0 | 0.0 | 0.00 | 0.00 | 0.00 | 99 | 1013.5 |
| 20260905120144 | 63 | 84 | 0.0 | 0.0 | 0.00 | 0.00 | 0.00 | 99 | 1013.5 |
| 20260905115644 | 62 | 84 | 0.0 | 0.0 | 0.00 | 0.00 | 0.00 | 99 | 1013.2 |
| 20260905115138 | 62 | 84 | 0.0 | 0.0 | 0.00 | 0.00 | 0.00 | 99 | 1013.2 |
| 20260905114638 | 62 | 84 | 0.0 | 0.0 | 0.00 | 0.00 | 0.00 | 99 | 1013.2 |
| 20260905114137 | 62 | 84 | 0.0 | 0.0 | 0.00 | 0.00 | 0.00 | 98 | 1013.5 |
| 20260905113632 | 63 | 84 | 0.0 | 0.0 | 0.00 | 0.00 | 0.00 | 98 | 1013.5 |
| 20260905113127 | 63 | 84 | 0.0 | 0.0 | 0.00 | 0.00 | 0.00 | 98 | 1013.2 |
| 20260905112621 | 63 | 84 | 0.0 | 0.0 | 0.00 | 0.00 | 0.00 | 98 | 1013.2 |
| 20260905112117 | 63 | 84 | 0.0 | 0.0 | 0.00 | 0.00 | 0.00 | 98 | 1013.5 |
| 20260905111612 | 63 | 84 | 0.0 | 0.0 | 0.00 | 0.00 | 0.00 | 98 | 1013.5 |
| 20260905111111 | 63 | 84 | 0.0 | 0.0 | 0.00 | 0.00 | 0.00 | 98 | 1013.5 |
| 20260905110610 | 63 | 84 | 0.0 | 0.0 | 0.00 | 0.00 | 0.00 | 98 | 1013.5 |
| 20260905110106 | 63 | 84 | 0.0 | 0.0 | 0.00 | 0.00 | 0.00 | 98 | 1013.9 |
| 20260905105600 | 64 | 84 | 0.0 | 0.0 | 0.00 | 0.00 | 0.00 | 98 | 1013.5 |
| 20260905105100 | 63 | 84 | 0.0 | 0.0 | 0.00 | 0.00 | 0.00 | 98 | 1013.5 |
| 20260905104556 | 63 | 84 | 0.0 | 0.0 | 0.00 | 0.00 | 0.00 | 98 | 1013.5 |
| 20260905104055 | 63 | 84 | 0.0 | 0.0 | 0.00 | 0.00 | 0.00 | 97 | 1013.5 |
| 20260905103550 | 63 | 84 | 0.0 | 0.0 | 0.00 | 0.00 | 0.00 | 97 | 1013.5 |
| 20260905103047 | 63 | 84 | 0.0 | 0.0 | 0.00 | 0.00 | 0.00 | 97 | 1013.2 |
| 20260905102542 | 64 | 84 | 0.0 | 0.0 | 0.00 | 0.00 | 0.00 | 97 | 1013.5 |
| 20260905102039 | 64 | 84 | 0.0 | 0.0 | 0.00 | 0.00 | 0.00 | 97 | 1013.5 |
| 20260905101536 | 64 | 84 | 0.0 | 0.0 | 0.00 | 0.00 | 0.00 | 97 | 1013.5 |
| 20260905101034 | 65 | 84 | 0.0 | 0.0 | 0.00 | 0.00 | 0.00 | 97 | 1013.5 |
| 20260905100526 | 65 | 84 | 0.0 | 0.0 | 0.00 | 0.00 | 0.00 | 97 | 1013.9 |
| 20260905100025 | 65 | 84 | 0.0 | 0.0 | 0.00 | 0.00 | 0.00 | 97 | 1013.5 |
| 20260905095520 | 64 | 84 | 0.0 | 0.0 | 0.00 | 0.00 | 0.00 | 96 | 1013.5 |
| 20260905095015 | 64 | 85 | 0.0 | 0.0 | 0.00 | 0.00 | 0.00 | 96 | 1013.5 |
| 20260905094510 | 65 | 85 | 0.0 | 0.0 | 0.00 | 0.00 | 0.00 | 95 | 1013.5 |
| 20260905094009 | 65 | 85 | 0.0 | 0.0 | 0.00 | 0.00 | 0.00 | 95 | 1013.5 |
| 20260905093504 | 65 | 85 | 0.0 | 0.0 | 0.00 | 0.00 | 0.00 | 95 | 1013.5 |
| 20260905093000 | 65 | 85 | 0.0 | 0.0 | 0.00 | 0.00 | 0.00 | 95 | 1013.5 |
| 20260905092455 | 65 | 85 | 0.0 | 0.0 | 0.00 | 0.00 | 0.00 | 95 | 1013.5 |
| 20260905091945 | 66 | 86 | 0.0 | 0.0 | 0.00 | 0.00 | 0.00 | 94 | 1013.5 |
| 20260905091444 | 66 | 86 | 0.0 | 0.0 | 0.00 | 0.00 | 0.00 | 94 | 1013.5 |
| 20260905090944 | 66 | 86 | 0.0 | 0.0 | 0.00 | 0.00 | 0.00 | 94 | 1013.9 |
| 20260905090439 | 66 | 86 | 0.0 | 0.0 | 0.00 | 0.00 | 0.00 | 94 | 1013.9 |
| 20260905085938 | 66 | 87 | 0.0 | 0.0 | 0.00 | 0.00 | 0.00 | 93 | 1013.9 |
| 20260905085432 | 66 | 91 | 0.0 | 0.0 | 0.00 | 0.00 | 0.00 | 93 | 1013.9 |
| 20260905084928 | 66 | 104 | 0.0 | 0.0 | 0.00 | 0.00 | 0.00 | 93 | 1013.9 |
| 20260905084427 | 66 | 112 | 0.0 | 0.0 | 0.00 | 0.00 | 0.00 | 93 | 1013.9 |
| 20260905083922 | 66 | 111 | 0.0 | 0.0 | 0.00 | 0.00 | 0.00 | 93 | 1013.5 |
| 20260905083418 | 66 | 112 | 0.0 | 0.0 | 0.00 | 0.00 | 0.00 | 93 | 1013.9 |
| 20260905082914 | 66 | 112 | 0.0 | 0.0 | 0.00 | 0.00 | 0.00 | 93 | 1013.5 |
| 20260905082409 | 66 | 111 | 0.0 | 0.0 | 0.00 | 0.00 | 0.00 | 93 | 1013.9 |
| 20260905081904 | 66 | 111 | 0.0 | 0.0 | 0.00 | 0.00 | 0.00 | 93 | 1013.9 |
| 20260905081359 | 66 | 111 | 0.0 | 0.0 | 0.00 | 0.00 | 0.00 | 93 | 1013.9 |
| 20260905080858 | 66 | 111 | 0.0 | 0.0 | 0.00 | 0.00 | 0.00 | 93 | 1013.9 |
| 20260905080353 | 66 | 111 | 0.0 | 0.0 | 0.00 | 0.00 | 0.00 | 93 | 1013.9 |
| 20260905075852 | 66 | 111 | 0.0 | 0.0 | 0.00 | 0.00 | 0.00 | 93 | 1013.9 |
| 20260905075351 | 66 | 112 | 0.0 | 0.0 | 0.00 | 0.00 | 0.00 | 93 | 1013.9 |
| 20260905074850 | 66 | 113 | 0.0 | 0.0 | 0.00 | 0.00 | 0.00 | 93 | 1013.9 |
| 20260905074346 | 67 | 116 | 0.0 | 0.0 | 0.00 | 0.00 | 0.00 | 93 | 1013.9 |
| 20260905073841 | 67 | 114 | 0.0 | 0.0 | 0.00 | 0.00 | 0.00 | 93 | 1013.9 |
| 20260905073336 | 67 | 114 | 0.0 | 0.0 | 0.00 | 0.00 | 0.00 | 94 | 1013.9 |
| 20260905072831 | 67 | 114 | 0.0 | 0.0 | 0.00 | 0.00 | 0.00 | 94 | 1013.9 |
| 20260905072326 | 67 | 115 | 0.0 | 0.0 | 0.00 | 0.00 | 0.00 | 94 | 1013.9 |
| 20260905071823 | 68 | 117 | 0.0 | 0.0 | 0.00 | 0.00 | 0.00 | 94 | 1013.9 |
| 20260905071320 | 68 | 118 | 0.0 | 0.0 | 0.00 | 0.00 | 0.00 | 94 | 1013.9 |
| 20260905070813 | 68 | 127 | 0.0 | 0.0 | 0.00 | 0.00 | 0.00 | 94 | 1013.9 |
| 20260905070305 | 68 | 141 | 0.0 | 0.0 | 0.00 | 0.00 | 0.00 | 94 | 1013.5 |
| 20260905065803 | 68 | 127 | 0.0 | 0.0 | 0.00 | 0.00 | 0.00 | 94 | 1013.9 |
| 20260905065306 | 68 | 118 | 0.0 | 0.0 | 0.00 | 0.00 | 0.00 | 94 | 1013.9 |
| 20260905064757 | 68 | 119 | 0.0 | 0.0 | 0.00 | 0.00 | 0.00 | 94 | 1013.9 |
| 20260905064247 | 68 | 121 | 0.0 | 0.0 | 0.00 | 0.00 | 0.00 | 94 | 1013.9 |
| 20260905063745 | 68 | 133 | 0.0 | 0.0 | 0.00 | 0.00 | 0.00 | 94 | 1013.9 |
| 20260905063242 | 68 | 181 | 0.0 | 0.0 | 0.00 | 0.00 | 0.00 | 94 | 1013.9 |
| 20260905062737 | 68 | 159 | 0.0 | 0.0 | 0.00 | 0.00 | 0.00 | 94 | 1013.5 |
| 20260905062238 | 68 | 189 | 0.0 | 0.0 | 0.00 | 0.00 | 0.00 | 94 | 1013.9 |
| 20260905061737 | 68 | 252 | 0.0 | 0.0 | 0.00 | 0.00 | 0.00 | 94 | 1013.5 |
| 20260905061232 | 68 | 190 | 0.0 | 0.0 | 0.00 | 0.00 | 0.00 | 94 | 1013.5 |
| 20260905060726 | 69 | 225 | 0.0 | 0.0 | 0.00 | 0.00 | 0.00 | 94 | 1013.9 |
| 20260905060223 | 69 | 166 | 0.0 | 0.0 | 0.00 | 0.00 | 0.00 | 95 | 1013.9 |
| 20260905055716 | 69 | 213 | 0.0 | 0.0 | 0.00 | 0.00 | 0.00 | 94 | 1013.5 |
| 20260905055211 | 69 | 234 | 0.0 | 0.0 | 0.00 | 0.00 | 0.00 | 94 | 1013.5 |
| 20260905054707 | 69 | 227 | 0.0 | 0.0 | 0.00 | 0.00 | 0.00 | 94 | 1013.2 |
| 20260905054203 | 69 | 227 | 0.0 | 0.0 | 0.00 | 0.00 | 0.00 | 94 | 1013.5 |
| 20260905053702 | 69 | 236 | 0.0 | 0.0 | 0.00 | 0.00 | 0.00 | 94 | 1013.5 |
| 20260905053156 | 69 | 226 | 0.0 | 0.0 | 0.00 | 0.00 | 0.00 | 94 | 1013.5 |
| 20260905052651 | 69 | 236 | 0.0 | 0.0 | 0.00 | 0.00 | 0.00 | 94 | 1013.5 |
| 20260905052146 | 69 | 243 | 0.0 | 0.0 | 0.00 | 0.00 | 0.00 | 94 | 1013.5 |
| 20260905051641 | 69 | 182 | 0.0 | 1.7 | 0.00 | 0.00 | 0.00 | 94 | 1013.5 |
| 20260905051138 | 69 | 209 | 0.0 | 0.0 | 0.00 | 0.00 | 0.00 | 94 | 1013.5 |
| 20260905050633 | 69 | 229 | 0.0 | 0.0 | 0.00 | 0.00 | 0.00 | 94 | 1013.5 |
| 20260905050130 | 69 | 243 | 0.0 | 0.0 | 0.00 | 0.00 | 0.00 | 94 | 1013.5 |
| 20260905045629 | 69 | 192 | 0.0 | 0.0 | 0.00 | 0.00 | 0.00 | 94 | 1013.5 |
| 20260905045126 | 69 | 243 | 0.0 | 0.0 | 0.00 | 0.00 | 0.00 | 94 | 1013.2 |
| 20260905044625 | 69 | 229 | 0.0 | 0.0 | 0.00 | 0.00 | 0.00 | 94 | 1013.5 |
| 20260905044120 | 69 | 266 | 6.1 | 7.8 | 0.00 | 0.00 | 0.00 | 94 | 1013.5 |
| 20260905043618 | 69 | 206 | 0.0 | 0.0 | 0.00 | 0.00 | 0.00 | 94 | 1013.5 |
| 20260905043114 | 69 | 266 | 0.0 | 0.0 | 0.00 | 0.00 | 0.00 | 94 | 1013.2 |
| 20260905042613 | 70 | 241 | 0.0 | 0.0 | 0.00 | 0.00 | 0.00 | 94 | 1013.2 |
| 20260905042108 | 70 | 236 | 0.0 | 0.0 | 0.00 | 0.00 | 0.00 | 93 | 1013.5 |
| 20260905041603 | 70 | 269 | 5.2 | 6.1 | 0.00 | 0.00 | 0.00 | 93 | 1013.5 |
| 20260905041059 | 70 | 226 | 2.6 | 4.3 | 0.00 | 0.00 | 0.00 | 93 | 1013.2 |
| 20260905040559 | 70 | 270 | 0.0 | 0.0 | 0.00 | 0.00 | 0.00 | 92 | 1013.2 |
| 20260905040057 | 70 | 233 | 0.0 | 0.0 | 0.00 | 0.00 | 0.00 | 92 | 1012.9 |
| 20260905035552 | 70 | 234 | 0.0 | 0.0 | 0.00 | 0.00 | 0.00 | 92 | 1013.2 |
| 20260905035049 | 70 | 233 | 0.0 | 0.0 | 0.00 | 0.00 | 0.00 | 91 | 1012.9 |
| 20260905034545 | 70 | 245 | 0.0 | 0.0 | 0.00 | 0.00 | 0.00 | 91 | 1012.9 |
| 20260905034044 | 70 | 254 | 0.0 | 0.0 | 0.00 | 0.00 | 0.00 | 91 | 1012.9 |
| 20260905033538 | 70 | 240 | 0.0 | 0.0 | 0.00 | 0.00 | 0.00 | 91 | 1012.9 |
| 20260905033035 | 70 | 226 | 0.0 | 0.0 | 0.00 | 0.00 | 0.00 | 91 | 1012.9 |
| 20260905032535 | 70 | 256 | 0.0 | 0.0 | 0.00 | 0.00 | 0.00 | 91 | 1012.9 |
| 20260905032030 | 70 | 248 | 0.0 | 0.0 | 0.00 | 0.00 | 0.00 | 91 | 1012.9 |
| 20260905031526 | 70 | 273 | 0.0 | 0.0 | 0.00 | 0.00 | 0.00 | 91 | 1012.9 |
| 20260905031025 | 70 | 256 | 0.0 | 0.0 | 0.00 | 0.00 | 0.00 | 91 | 1012.9 |
| 20260905030521 | 70 | 234 | 0.0 | 0.0 | 0.00 | 0.00 | 0.00 | 90 | 1012.5 |
| 20260905030021 | 70 | 254 | 0.0 | 0.0 | 0.00 | 0.00 | 0.00 | 90 | 1012.9 |
| 20260905025516 | 70 | 228 | 0.0 | 0.0 | 0.00 | 0.00 | 0.00 | 90 | 1012.5 |
| 20260905025012 | 70 | 246 | 0.0 | 0.0 | 0.00 | 0.00 | 0.00 | 90 | 1012.5 |
| 20260905024507 | 70 | 236 | 0.0 | 0.0 | 0.00 | 0.00 | 0.00 | 90 | 1012.5 |
| 20260905024002 | 70 | 246 | 0.0 | 0.0 | 0.00 | 0.00 | 0.00 | 90 | 1012.5 |
| 20260905023457 | 70 | 266 | 0.0 | 0.0 | 0.00 | 0.00 | 0.00 | 90 | 1012.5 |
| 20260905022956 | 70 | 251 | 0.0 | 0.0 | 0.00 | 0.00 | 0.00 | 90 | 1012.5 |
| 20260905022451 | 70 | 226 | 6.1 | 7.8 | 0.00 | 0.00 | 0.00 | 89 | 1012.5 |
| 20260905021947 | 70 | 226 | 5.2 | 6.1 | 0.00 | 0.00 | 0.00 | 89 | 1012.5 |
| 20260905021446 | 71 | 253 | 2.6 | 6.1 | 0.00 | 0.00 | 0.00 | 88 | 1012.5 |
| 20260905020941 | 71 | 235 | 0.0 | 0.0 | 0.00 | 0.00 | 0.00 | 88 | 1012.5 |
| 20260905020436 | 71 | 234 | 0.0 | 0.0 | 0.00 | 0.00 | 0.00 | 88 | 1012.5 |
| 20260905015936 | 71 | 215 | 2.6 | 7.8 | 0.00 | 0.00 | 0.00 | 87 | 1012.5 |
| 20260905015433 | 71 | 218 | 0.0 | 0.0 | 0.00 | 0.00 | 0.00 | 87 | 1012.5 |
| 20260905014933 | 72 | 224 | 7.0 | 9.6 | 0.00 | 0.00 | 0.00 | 86 | 1012.5 |
| 20260905014428 | 72 | 213 | 2.6 | 4.3 | 0.00 | 0.00 | 0.00 | 86 | 1012.9 |
| 20260905013924 | 72 | 243 | 3.5 | 6.1 | 0.00 | 0.00 | 0.00 | 85 | 1012.9 |
| 20260905013420 | 72 | 234 | 7.8 | 8.7 | 0.00 | 0.00 | 0.00 | 85 | 1012.9 |
| 20260905012915 | 72 | 253 | 0.0 | 0.9 | 0.00 | 0.00 | 0.00 | 85 | 1012.5 |
| 20260905012411 | 73 | 248 | 7.8 | 9.6 | 0.00 | 0.00 | 0.00 | 83 | 1012.9 |
| 20260905011908 | 73 | 230 | 5.2 | 6.1 | 0.00 | 0.00 | 0.00 | 83 | 1012.9 |
| 20260905011403 | 73 | 230 | 6.1 | 7.0 | 0.00 | 0.00 | 0.00 | 82 | 1012.5 |
| 20260905010858 | 73 | 250 | 5.2 | 7.8 | 0.00 | 0.00 | 0.00 | 82 | 1012.5 |
| 20260905010353 | 73 | 246 | 2.6 | 7.8 | 0.00 | 0.00 | 0.00 | 82 | 1012.9 |
| 20260905005849 | 74 | 236 | 0.0 | 0.0 | 0.00 | 0.00 | 0.00 | 81 | 1012.9 |
| 20260905005345 | 74 | 210 | 6.1 | 7.8 | 0.00 | 0.00 | 0.00 | 81 | 1012.9 |
| 20260905004840 | 73 | 264 | 5.2 | 6.1 | 0.00 | 0.00 | 0.00 | 81 | 1012.9 |
| 20260905004340 | 74 | 221 | 5.2 | 7.8 | 0.00 | 0.00 | 0.00 | 81 | 1012.9 |
| 20260905003835 | 74 | 238 | 4.3 | 6.1 | 0.00 | 0.00 | 0.00 | 81 | 1012.9 |
| 20260905003332 | 74 | 263 | 7.0 | 7.8 | 0.00 | 0.00 | 0.00 | 80 | 1012.9 |
| 20260905002827 | 75 | 250 | 6.1 | 7.0 | 0.00 | 0.00 | 0.00 | 80 | 1012.9 |
| 20260905002326 | 74 | 221 | 4.3 | 4.3 | 0.00 | 0.00 | 0.00 | 81 | 1012.9 |
| 20260905001821 | 75 | 241 | 6.1 | 9.6 | 0.00 | 0.00 | 0.00 | 79 | 1012.9 |
| 20260905001321 | 75 | 252 | 5.2 | 7.8 | 0.00 | 0.00 | 0.00 | 79 | 1012.9 |
| 20260905000816 | 75 | 243 | 5.2 | 7.0 | 0.00 | 0.00 | 0.00 | 79 | 1012.9 |
| 20260905000312 | 75 | 245 | 3.5 | 7.0 | 0.00 | 0.00 | 0.00 | 79 | 1012.9 |
| 20260904235807 | 75 | 254 | 6.1 | 7.8 | 0.00 | 0.00 | 0.00 | 79 | 1012.9 |
| 20260904235305 | 74 | 266 | 3.5 | 6.1 | 0.00 | 0.00 | 0.00 | 80 | 1012.9 |
| 20260904234757 | 74 | 225 | 8.7 | 11.3 | 0.00 | 0.00 | 0.00 | 79 | 1013.2 |
| 20260904234252 | 75 | 222 | 6.1 | 8.7 | 0.00 | 0.00 | 0.00 | 78 | 1012.9 |
| 20260904233747 | 76 | 274 | 8.7 | 11.3 | 0.00 | 0.00 | 0.00 | 76 | 1012.9 |
| 20260904233244 | 76 | 263 | 1.7 | 2.6 | 0.00 | 0.00 | 0.00 | 77 | 1012.9 |
| 20260904232741 | 77 | 272 | 5.2 | 7.0 | 0.00 | 0.00 | 0.00 | 76 | 1012.9 |
| 20260904232236 | 76 | 246 | 6.1 | 7.8 | 0.00 | 0.00 | 0.00 | 76 | 1012.9 |
| 20260904231731 | 76 | 223 | 8.7 | 8.7 | 0.00 | 0.00 | 0.00 | 77 | 1013.2 |
| 20260904231227 | 76 | 248 | 6.1 | 7.8 | 0.00 | 0.00 | 0.00 | 76 | 1012.9 |
| 20260904230726 | 77 | 244 | 7.0 | 11.3 | 0.00 | 0.00 | 0.00 | 75 | 1012.9 |
| 20260904230221 | 78 | 150 | 5.2 | 7.0 | 0.00 | 0.00 | 0.00 | 74 | 1012.9 |
| 20260904225720 | 78 | 243 | 5.2 | 6.1 | 0.00 | 0.00 | 0.00 | 71 | 1012.9 |
| 20260904225214 | 78 | 243 | 7.0 | 7.8 | 0.00 | 0.00 | 0.00 | 71 | 1013.2 |
| 20260904224713 | 78 | 243 | 6.1 | 7.8 | 0.00 | 0.00 | 0.00 | 70 | 1012.9 |
| 20260904224209 | 78 | 255 | 7.8 | 9.6 | 0.00 | 0.00 | 0.00 | 68 | 1012.9 |
| 20260904223708 | 78 | 261 | 5.2 | 7.0 | 0.00 | 0.00 | 0.00 | 68 | 1012.9 |
| 20260904223203 | 79 | 263 | 10.4 | 12.2 | 0.00 | 0.00 | 0.00 | 66 | 1012.5 |
| 20260904222659 | 79 | 295 | 7.8 | 11.3 | 0.00 | 0.00 | 0.00 | 66 | 1012.9 |
| 20260904222155 | 81 | 207 | 0.0 | 0.0 | 0.00 | 0.00 | 0.00 | 63 | 1012.9 |
| 20260904221654 | 81 | 279 | 3.5 | 4.3 | 0.00 | 0.00 | 0.00 | 62 | 1012.9 |
| 20260904221149 | 84 | 281 | 0.0 | 0.0 | 0.00 | 0.00 | 0.00 | 56 | 1012.9 |
| 20260904220644 | 84 | 56 | 0.9 | 1.7 | 0.00 | 0.00 | 0.00 | 53 | 1012.9 |
| 20260904220139 | 82 | 28 | 0.0 | 0.0 | 0.00 | 0.00 | 0.00 | 52 | 1012.9 |
| 20260904215633 | 81 | 233 | 0.9 | 1.7 | 0.00 | 0.00 | 0.00 | 53 | 1012.9 |
| 20260904215129 | 81 | 110 | 2.6 | 4.3 | 0.00 | 0.00 | 0.00 | 57 | 1012.9 |
| 20260904214629 | 82 | 55 | 0.9 | 2.6 | 0.00 | 0.00 | 0.00 | 54 | 1012.9 |
| 20260904214125 | 83 | 47 | 3.5 | 6.1 | 0.00 | 0.00 | 0.00 | 56 | 1013.2 |
| 20260904213623 | 80 | 48 | 0.9 | 1.7 | 0.00 | 0.00 | 0.00 | 55 | 1013.2 |
| 20260904213119 | 82 | 152 | 4.3 | 5.2 | 0.00 | 0.00 | 0.00 | 55 | 1013.2 |
| 20260904212614 | 82 | 146 | 0.0 | 0.0 | 0.00 | 0.00 | 0.00 | 55 | 1013.2 |
| 20260904212109 | 83 | 83 | 3.5 | 4.3 | 0.00 | 0.00 | 0.00 | 55 | 1013.2 |
| 20260904211609 | 82 | 95 | 2.6 | 4.3 | 0.00 | 0.00 | 0.00 | 55 | 1013.2 |
| 20260904211104 | 82 | 74 | 2.6 | 4.3 | 0.00 | 0.00 | 0.00 | 55 | 1013.2 |
| 20260904210604 | 82 | 33 | 3.5 | 6.1 | 0.00 | 0.00 | 0.00 | 52 | 1013.2 |
| 20260904210059 | 83 | 59 | 3.5 | 6.1 | 0.00 | 0.00 | 0.00 | 54 | 1013.2 |
| 20260904205554 | 81 | 41 | 1.7 | 1.7 | 0.00 | 0.00 | 0.00 | 51 | 1013.2 |
| 20260904205051 | 82 | 36 | 0.0 | 0.0 | 0.00 | 0.00 | 0.00 | 54 | 1013.2 |
| 20260904204547 | 82 | 58 | 3.5 | 4.3 | 0.00 | 0.00 | 0.00 | 52 | 1013.2 |
| 20260904204043 | 82 | 112 | 3.5 | 4.3 | 0.00 | 0.00 | 0.00 | 48 | 1013.5 |
| 20260904203538 | 82 | 50 | 2.6 | 4.3 | 0.00 | 0.00 | 0.00 | 53 | 1013.5 |
| 20260904203035 | 81 | 89 | 1.7 | 1.7 | 0.00 | 0.00 | 0.00 | 57 | 1013.2 |
| 20260904202530 | 81 | 105 | 3.5 | 5.2 | 0.00 | 0.00 | 0.00 | 60 | 1013.2 |
| 20260904202026 | 80 | 41 | 0.9 | 0.9 | 0.00 | 0.00 | 0.00 | 61 | 1013.5 |
| 20260904201521 | 79 | 102 | 2.6 | 2.6 | 0.00 | 0.00 | 0.00 | 63 | 1013.5 |
| 20260904201017 | 81 | 57 | 0.0 | 0.0 | 0.00 | 0.00 | 0.00 | 59 | 1013.5 |
| 20260904200515 | 81 | 81 | 1.7 | 2.6 | 0.00 | 0.00 | 0.00 | 62 | 1013.9 |
| 20260904200011 | 80 | 185 | 1.7 | 4.3 | 0.00 | 0.00 | 0.00 | 62 | 1013.9 |
| 20260904195509 | 80 | 94 | 2.6 | 5.2 | 0.00 | 0.00 | 0.00 | 64 | 1013.9 |
| 20260904195008 | 79 | 36 | 0.0 | 0.0 | 0.00 | 0.00 | 0.00 | 65 | 1013.9 |
| 20260904194502 | 80 | 81 | 1.7 | 1.7 | 0.00 | 0.00 | 0.00 | 65 | 1013.9 |
| 20260904193957 | 79 | 94 | 0.0 | 0.0 | 0.00 | 0.00 | 0.00 | 67 | 1013.9 |
| 20260904193453 | 78 | 208 | 0.0 | 0.0 | 0.00 | 0.00 | 0.00 | 68 | 1013.9 |
| 20260904192948 | 78 | 59 | 3.5 | 4.3 | 0.00 | 0.00 | 0.00 | 69 | 1013.9 |
| 20260904192443 | 80 | 62 | 0.9 | 4.3 | 0.00 | 0.00 | 0.00 | 65 | 1014.2 |
| 20260904191939 | 78 | 138 | 3.5 | 4.3 | 0.00 | 0.00 | 0.00 | 67 | 1014.2 |
| 20260904191436 | 78 | 90 | 2.6 | 7.0 | 0.00 | 0.00 | 0.00 | 68 | 1014.2 |
| 20260904190932 | 79 | 87 | 2.6 | 5.2 | 0.00 | 0.00 | 0.00 | 68 | 1014.2 |
| 20260904190426 | 78 | 57 | 1.7 | 2.6 | 0.00 | 0.00 | 0.00 | 69 | 1014.2 |
| 20260904185923 | 77 | 75 | 0.9 | 4.3 | 0.00 | 0.00 | 0.00 | 71 | 1014.2 |
| 20260904185419 | 77 | 200 | 4.3 | 5.2 | 0.00 | 0.00 | 0.00 | 70 | 1014.6 |
| 20260904184919 | 77 | 98 | 0.0 | 0.0 | 0.00 | 0.00 | 0.00 | 70 | 1014.6 |
| 20260904184413 | 78 | 106 | 0.0 | 0.0 | 0.00 | 0.00 | 0.00 | 70 | 1014.6 |
| 20260904183908 | 77 | 195 | 0.0 | 0.0 | 0.00 | 0.00 | 0.00 | 72 | 1014.6 |
| 20260904183404 | 78 | 56 | 3.5 | 7.0 | 0.00 | 0.00 | 0.00 | 69 | 1014.6 |
| 20260904182900 | 77 | 84 | 0.0 | 0.0 | 0.00 | 0.00 | 0.00 | 71 | 1014.6 |
| 20260904182359 | 77 | 132 | 1.7 | 1.7 | 0.00 | 0.00 | 0.00 | 70 | 1014.6 |
| 20260904181854 | 76 | 83 | 4.3 | 5.2 | 0.00 | 0.00 | 0.00 | 69 | 1014.6 |
| 20260904181349 | 76 | 63 | 3.5 | 5.2 | 0.00 | 0.00 | 0.00 | 71 | 1014.2 |
| 20260904180845 | 77 | 98 | 2.6 | 5.2 | 0.00 | 0.00 | 0.00 | 72 | 1014.6 |
| 20260904180340 | 77 | 78 | 4.3 | 7.0 | 0.00 | 0.00 | 0.00 | 71 | 1014.6 |
| 20260904175839 | 78 | 84 | 3.5 | 4.3 | 0.00 | 0.00 | 0.00 | 69 | 1014.9 |
| 20260904175334 | 78 | 134 | 4.3 | 5.2 | 0.00 | 0.00 | 0.00 | 69 | 1014.6 |